Home > Weather > Pratapgarh > Past weeks

Flag for India Past Weather in Pratapgarh, Uttar Pradesh, India — Yesterday and Last 2 Weeks

Now
91 °F

Passing clouds.


Feels Like: 108 °F
Forecast: 82 / 94 °F
Wind: 2 mph from North

Location: Lucknow / Amausi

Current Time: Aug 28, 2016 at 7:48:28 PM

Latest Report: Aug 28, 2016 at 7:00 PM


Visibility: 2 mi

Pressure: 29.62 "Hg

Humidity: 67%

Dew Point: 79 °F

Location of PratapgarhLocation

Past Weather in Pratapgarh — Graph

°F

Pratapgarh Temperature Yesterday

Maximum temperature yesterday: 97 °F (at 3:00 PM)
Minimum temperature yesterday: 79 °F (at 5:00 AM)
Average temperature yesterday: 89 °F

High & Low Weather Summary for the Past Weeks

 TemperatureHumidityPressure
High99 °F (Aug 25, 12:00 PM)100% (Aug 13, 11:00 PM)29.77 "Hg (Aug 13, 11:00 PM)
Low77 °F (Aug 17, 12:00 AM)60% (Aug 28, 3:00 PM)29.36 "Hg (Aug 16, 4:00 PM)
Average86 °F89%29.56 "Hg
* Reported Aug 13 6:30 PM — Aug 28 6:30 PM, Pratapgarh, Weather by CustomWeather, © 2016

Note: Actual official high and low records may vary slightly from our data, if they occured in-between our weather recording intervals... More about our weather records

Advertising

Pratapgarh Weather History for the Previous 24 Hours

Scroll right to see more
 ConditionsComfort  
Time TempWeatherWind HumidityBarometerVisibility
6:30 PM
Sun, Aug 28
91 °FScattered clouds.No wind67%29.62 "Hg3 mi
6:00 PM93 °FScattered clouds.No wind67%29.62 "Hg3 mi
5:30 PM93 °FScattered clouds.2 mph63%29.62 "Hg3 mi
5:00 PM97 °FScattered clouds.2 mph63%29.62 "Hg3 mi
4:30 PM99 °FScattered clouds.2 mph60%29.62 "Hg3 mi
4:00 PM99 °FScattered clouds.No wind64%29.62 "Hg3 mi
3:30 PM99 °FScattered clouds.2 mph64%29.65 "Hg3 mi
3:00 PM99 °FScattered clouds.2 mph60%29.65 "Hg3 mi
2:30 PM99 °FScattered clouds.2 mph64%29.65 "Hg3 mi
2:00 PM99 °FScattered clouds.2 mph64%29.68 "Hg3 mi
1:30 PM99 °FScattered clouds.2 mph64%29.71 "Hg3 mi
1:00 PM97 °FScattered clouds.2 mph67%29.71 "Hg3 mi
12:30 PM97 °FScattered clouds.5 mph67%29.71 "Hg3 mi
12:00 PM97 °FScattered clouds.6 mph71%29.74 "Hg3 mi
11:30 AM95 °FScattered clouds.5 mph75%29.74 "Hg3 mi
11:00 AM95 °FScattered clouds.5 mph75%29.74 "Hg3 mi
10:30 AM95 °FScattered clouds.5 mph75%29.74 "Hg3 mi
10:00 AM93 °FScattered clouds.6 mph80%29.74 "Hg3 mi
9:30 AM93 °FHaze.5 mph80%29.77 "Hg2 mi
9:00 AM91 °FHaze.6 mph84%29.77 "Hg2 mi
8:30 AM90 °FHaze.6 mph89%29.77 "Hg2 mi
8:00 AM90 °FHaze.2 mph89%29.74 "Hg2 mi
7:30 AM88 °FHaze.2 mph89%29.74 "Hg2 mi
7:00 AM86 °FHaze.No wind94%29.74 "Hg2 mi
6:30 AM84 °FHaze.No wind100%29.71 "Hg2 mi
6:00 AM84 °FHaze.No wind100%29.71 "Hg2 mi
5:30 AM84 °FHaze.No wind100%29.71 "Hg2 mi
5:00 AM84 °FHaze.No wind100%29.68 "Hg2 mi
4:00 AM84 °FHaze.No wind100%29.71 "Hg2 mi
3:00 AM84 °FHaze.No wind100%29.71 "Hg2 mi
2:00 AM86 °FPassing clouds.No wind100%29.71 "Hg2 mi
1:00 AM86 °FPassing clouds.No wind100%29.71 "Hg2 mi
12:00 AM88 °FPassing clouds.No wind100%29.71 "Hg2 mi
11:00 PM
Sat, Aug 27
88 °FPartly cloudy.No wind94%29.71 "Hg2 mi
10:00 PM90 °FPartly cloudy.No wind89%29.68 "Hg2 mi
9:00 PM90 °FPartly cloudy.2 mph89%29.68 "Hg2 mi
8:00 PM91 °FPassing clouds.No wind84%29.65 "Hg2 mi
7:30 PM91 °FPassing clouds.2 mph80%29.65 "Hg2 mi
7:00 PM91 °FScattered clouds.No wind80%29.62 "Hg2 mi
Weather by CustomWeather, © 2016

See weather overviewHow to use our weather pages